Showing default

HIMAWARI 5 (GMS 5), 23522

Orbit data source: Space-Track

HIMAWARI 5 (GMS 5), 23522 is a payload satellite owned by NASDA (JP) in GEO that was launched on Sat, 18 Mar 1995 UTC via an H-II launch vehicle from the Tanegashima Space Center (TNSTA). Payload-class satellites include a variety of spacecraft equipped with specific instruments for various scientific and technological missions. These include communications satellites like Starlink; space stations such as the ISS; scientific satellites like the Hubble; Earth observation satellites from companies like Planet Labs, Umbra, and HawkEye 360; GPS; miniature CubeSats for education and research; and military/defense satellites.

Loading next visibility...
Identifier
23522, 1995-011B
Orbit
GEO
Country
Flag of JPJP / JPN
Related business
Manufacturer
NEC/HSES
Mission
Non-operational Civil Weather
Bus & Motor
HS-378, STAR 27
Mass
746 kg wet, ~200 kg dry
Launch date (UTC)
1995-03-18 (31 years ago)
Launch vehicle
H-II
Launch site
Tanegashima Space Center (TNSTA)
Object type
Payload
Rocket body
Debris
Shape & HBR
Cyl, 1.8 m
Radar Cross Section
7.793 m², Large (>1 m²)

Expand to show TLE details & history
Last TLE update: 1 day ago

TLE from 1 day ago
0 HIMAWARI 5 (GMS 5)
1 23522U 95011B   25346.04274807 -.00000035  00000-0  00000-0 0  9991
2 23522  14.2232   5.7932 0007049 174.3282 177.0966  0.99401623111736
Epoch: 2025-12-12T01:01Z
TLE epoch observation values (Epoch: 2025-12-12T01:01:33.433Z)
Latitude
-2.09974°
Longitude
-98.90232°
Altitude
36,061.906 km
Speed
3.064 km/s
True Right ascension
23h 49m 54s
True Declination
-2° 05' 51"
Sunlit
Object was in daylight at epoch
Visualization orbit readout
Latitude
Unknown
Longitude
Unknown
Altitude
Unknown
Speed
Unknown
Apparent Right ascension
Unknown
Apparent Declination
Unknown
Sunlit
N/A
Visualization observer readout
Local Sidereal Time
05:23:01
Azimuth
Unknown
Elevation
Unknown
Doppler factor
Unknown
Orbital elements
Apogee altitude
36,063.177 km
Perigee altitude
36,003.385 km
Semi-major axis
42,411.418 km
Eccentricity
0.0007
Inclination
14.2232°
RAAN
5.7932°
Arg. of periapsis
174.3282°
True anomaly
177.10069°
Mean anomaly
177.0966°
Eccentric anomaly
177.09864°
Mean motion
0.2485 °/min
Orbital period
1,448.72 mins
BSTAR
0
Loading maneuver chart data...
Computing Atmospheric mass density...
Loading historical data...
Loading historical data...
Loading historical data...
Loading historical data...
Loading historical data...
Loading historical data...
Loading historical data...

Documentation

Showing up to 5 results
|